User: anonymous   Login
Location: Unspecified
(0.0000°N, 0.0000°E)
Time: 06:25:03
(UTC+00:00)
Language:

CAS-4A - Orbit

View from above orbital plane
View from above orbital plane
View from above satellite
View from above satellite

Ground track
Ground track

The orbit data is extracted from the following two-line orbital elements,

1 42761U 17034D   19020.89365029 +.00000105 +00000-0 +19985-4 0  9991
2 42761 043.0198 327.5727 0010715 028.5344 071.8512 15.09544061088342
Epoch (UTC): 20 January 2019 21:26:51
Eccentricity: 0.0010715
inclination: 43.0198°
perigee height: 530 km
apogee height: 545 km
right ascension of ascending node: 327.5727°
argument of perigee: 28.5344°
revolutions per day: 15.09544061
mean anomaly at epoch: 71.8512°
orbit number at epoch: 8834

The dashed part of the orbit path shows where the satellite is in the earth's shadow,  

DLR